Regional Weather Roundup
Issued by NWS

Home | Current Version | Previous Version | Text Only | Print | Product List | Glossary Off
Versions: 1 2 3 4 5 6 7 8 9 10 11 12 13 14 15 16 17 18 19 20 21 22 23 24 25 26 27 28 29 30 31 32 33 34 35 36 37 38 39 40 41 42 43 44 45 46 47 48 49 50

000
ASUS43 KDMX 300207
RWRIA

WEATHER ROUNDUP FOR IOWA
NATIONAL WEATHER SERVICE DES MOINES IA
900 PM CDT MON JUN 29 2015

NOTE: "FAIR" INDICATES FEW OR NO CLOUDS BELOW 12,000 FEET WITH NO
SIGNIFICANT WEATHER AND/OR OBSTRUCTIONS TO VISIBILITY.

* - THESE STATIONS ARE NOT NWS STATIONS...THUS NOT UNDER NWS
QUALITY CONTROL.  THEY ALSO DO NOT REPORT WEATHER SUCH
AS PRECIPITATION OR FOG.

IAZ001>003-012>014-020>022-031>034-043>046-300300-
   NORTHWEST IOWA

CITY           SKY/WX    TMP DP  RH WIND       PRES   REMARKS
CARROLL *      CLEAR     72  66  83 W7        29.88S
CHEROKEE *     CLEAR     72  66  83 CALM      29.89R
DENISON *      CLEAR     72  66  83 MISG      29.88S
LE MARS *      CLEAR     72  66  83 CALM      29.90S
ORANGE CITY *  CLEAR     70  63  78 W3        29.90S
SHELDON *      CLEAR     70  66  88 W7        29.88S
SIOUX CITY     CLEAR     73  65  75 CALM      29.90R HAZE
SPENCER        CLEAR     70  63  78 W7        29.88S HAZE
STORM LAKE *   CLEAR     70  64  83 W7        29.90S
$$

IAZ055>058-069>071-079>083-090>094-300300-
   SOUTHWEST IOWA

CITY           SKY/WX    TMP DP  RH WIND       PRES   REMARKS
ATLANTIC *     CLEAR     72  64  78 CALM      29.89F
AUDUBON *      CLEAR     70  64  83 CALM      29.90F
CLARINDA *     CLEAR     73  72  94 CALM      29.91S
COUNCIL BLFS * CLEAR     75  64  69 CALM      29.91S
CRESTON *      CLEAR     72  63  73 NW5       29.90S
HARLAN  *      CLEAR     70  70 100 CALM      29.93S
LAMONI         CLEAR     73  68  84 W3        29.89S
RED OAK *      CLEAR     73  66  78 CALM      29.90S
SHENANDOAH *   MOCLDY    77  66  69 CALM      29.91R
$$

IAZ047>049-059>061-072>074-084-300300-
   CENTRAL IOWA

CITY           SKY/WX    TMP DP  RH WIND       PRES   REMARKS
AMES           CLEAR     71  66  84 W6        29.85S
ANKENY *       CLEAR     73  66  78 W7        29.85F
CHARITON *     CLEAR     72  68  88 W6        29.87F
DES MOINES     CLOUDY    76  64  66 CALM      29.86S
GRINNELL*      CLEAR     70  66  88 W6        29.84F
KNOXVILLE *    CLEAR     72  66  83 W7        29.85S
MARSHALLTOWN   CLEAR     71  66  84 W6        29.83F
PELLA *        CLEAR     72  70  94 W5        29.86S
PERRY *          N/A     72  66  83 W7        29.87S
$$

IAZ004>006-015-016-023>025-035-036-300300-
   NORTH CENTRAL IOWA

CITY           SKY/WX    TMP DP  RH WIND       PRES   REMARKS
ALGONA *       CLEAR     72  64  78 W8        29.86S
CLARION *      CLEAR     70  66  88 W5        29.85S
ESTHERVILLE    CLEAR     69  62  78 W7        29.86S HAZE
FORT DODGE *   CLEAR     70  63  78 SW3       29.87S
MASON CITY     CLEAR     71  64  78 W6        29.85S
FOREST CITY *  CLEAR     68  64  88 W5        29.84S
IOWA FALLS *     N/A     70  66  88 W7        29.85F
$$

IAZ007>011-017>019-026>030-037>042-050>054-066-300300-
   NORTHEAST IOWA

CITY           SKY/WX    TMP DP  RH WIND       PRES   REMARKS
CEDAR RAPIDS   PTCLDY    71  68  90 W6        29.81S
CHARLES CITY * PTCLDY    68  59  73 NE8G14    29.86R
CLINTON *      MOCLDY    70  63  78 W6        29.82S
DECORAH *        N/A    N/A N/A N/A MISG        N/A
DUBUQUE        TSTM      65  58  78 E5        29.82R
MONTICELLO *   PTCLDY    68 -38   1 NE7G20    29.82R
OELWEIN *      LGT RAIN  66  63  88 NE14G23   29.84R
WATERLOO       PTCLDY    74  64  71 W6        29.80F
$$

IAZ064-065-067-068-078-300300-
   EAST CENTRAL IOWA

CITY           SKY/WX    TMP DP  RH WIND       PRES   REMARKS
DAVENPORT      MOCLDY    67  63  87 SW5       29.80F
IOWA CITY      PTCLDY    72  67  84 W5        29.82S
MT. PLEASANT * CLEAR     72  64  78 W6        29.84S
MUSCATINE *    PTCLDY    72  64  78 W8        29.80F
QUAD CITIES    CLOUDY    68  62  81 W13G18    29.80S THUNDER
$$

IAZ062-063-075>077-085>089-095>099-300300-
   SOUTHEAST IOWA

CITY           SKY/WX    TMP DP  RH WIND       PRES   REMARKS
BURLINGTON     CLEAR     69  69 100 SW6       29.82F
FAIRFIELD *    CLEAR     72  66  83 W6        29.84S
FORT MADISON * CLEAR     72  70  94 CALM      29.84F
KEOKUK *       CLEAR     72  70  94 SW3       29.83S
OSKALOOSA *      N/A     70  66  88 W5        29.85S
CENTERVILLE *  CLEAR     72  66  83 W6        29.89S
OTTUMWA        CLEAR     70  66  87 W5        29.83F
WASHINGTON *   CLEAR     68  64  88 W6        29.84S
$$

ABBREVIATIONS USED IN REMARKS
   TC - TEMPERATURES IN CELSIUS
  WCI - WIND CHILL INDEX
   HX - HEAT INDEX
  VSB - VISIBILITY
$$




USA.gov is the U.S. government's official web portal to all federal, state and local government web resources and services.